COSMOS 2499 DEB, 60617

Orbit data source: Space-Track

COSMOS 2499 DEB, 60617 is space debris in LEO originally from a launch on Fri, 23 May 2014 UTC launched from the Plesetsk Missile And Space Complex (PKMTR). Debris objects in space refer to the collection of defunct objects orbiting the Earth. Examples of debris include non-operational satellites, rocket bodies, and fragments generated from explosions, collisions, or faulty payload assembly.

Loading next visibility...
Identifier
60617, 2014-028CD
Orbit
LEO
Country
Flag of CISCIS
Related business
Manufacturer
TsNIIKhM
Mission
Spacecraft
Bus & Motor
Unknown
Mass
Unknown
Launch date (UTC)
2014-05-23 (12 years ago)
Launch vehicle
Unknown
Launch site
Plesetsk Missile And Space Complex (PKMTR)
Object type
Payload
Rocket body
Debris
Shape & HBR
Unknown shape, 0.1 m
Radar Cross Section
Small (<0.1 m²)

Expand to show TLE details & history
Last TLE update: 2 days ago

TLE from 2 days ago
0 COSMOS 2499 DEB
1 60617U 14028CD  25348.65199737  .00006110  00000-0  13834-1 0  9992
2 60617  82.1901 311.5605 0121894 299.5983  59.3041 13.23521213124578
Epoch: 2025-12-14T15:38Z
TLE epoch observation values (Epoch: 2025-12-14T15:38:52.572Z)
Latitude
-0.00005°
Longitude
-6.7204°
Altitude
1,127.96 km
Speed
7.311 km/s
True Right ascension
20h 46m 14s
True Declination
0° 00' 00"
Sunlit
Object was in daylight at epoch
Visualization orbit readout
Latitude
Unknown
Longitude
Unknown
Altitude
Unknown
Speed
Unknown
Apparent Right ascension
Unknown
Apparent Declination
Unknown
Sunlit
N/A
Visualization observer readout
Local Sidereal Time
12:46:36
Azimuth
Unknown
Elevation
Unknown
Doppler factor
Unknown
Orbital elements
Apogee altitude
1,260.539 km
Perigee altitude
1,076.56 km
Semi-major axis
7,546.687 km
Eccentricity
0.01219
Inclination
82.1901°
RAAN
311.5605°
Arg. of periapsis
299.5983°
True anomaly
60.51452°
Mean anomaly
59.3041°
Eccentric anomaly
59.90837°
Mean motion
3.31062 °/min
Orbital period
108.74 mins
BSTAR
0.013834
Loading maneuver chart data...
Computing Atmospheric mass density...
Loading historical data...
Loading historical data...
Loading historical data...
Loading historical data...
Loading historical data...
Loading historical data...
Loading historical data...

Documentation

Showing up to 5 results
|